Location: Al Mulaqqa?ah
(24.1833°N, 32.8833°E)
Time: 20:13:02
(UTC+00:00)

Cosmos 1733 - Pass Details

Date: 26 September 2021
Orbit: 504 x 519 km, 82.5° (Epoch: 21 October)

Event Time Altitude Azimuth Distance (km) Brightness Sun altitude
Rises 16:34:01 0° 171° (S) 2,594 6.6 -13.0°
Reaches altitude 10° 16:36:11 10° 164° (SSE) 1,714 5.6 -13.5°
Maximum altitude 16:39:45 42° 93° (E) 735 3.5 -14.3°
Drops below altitude 10° 16:43:20 10° 21° (NNE) 1,730 5.7 -15.1°
Sets 16:45:32 0° 15° (NNE) 2,621 6.7 -15.6°
